Starlink 35255

operational
NORAD ID: 65602 Int'l Des: 2025-207 Owner: SPXS Country: US Constellation: starlink
NOTLE

Über Starlink 35255

Beschreibung wird geladen...

Live-Position

3D-Globus wird geladen...

Nächste Überflüge

Höhenverlauf

Altitude vs Time

uPlot chart will show altitude changes over time

Zweizeiliger Elementsatz

1 65602U 25207L 25308.61875143 .00058664 00000-0 14952-2 0 9990
2 65602 97.6053 12.9251 0000604 66.4788 293.6521 15.39337306 9287
Epoch: 4. Nov. 2025 • Age: 14 hours

Aktueller Status

Höhe 475.1 km
Geschwindigkeit 7.63 km/s
Subsatellitenpunkt -73.35°S, 73.27°W
Startdatum 13. Sept. 2025
Alter 0.1 years
Typ internet

Technische Details

Klassifizierung Payload
Masse 575.00 kg
Trockenmasse 530.00 kg
Gesamtmasse 575.00 kg
Länge 0.30 m
Durchmesser 4.10 m
Spannweite 29.00 m
Form Box + pan
Hersteller SPXS
Bus-Typ Starlink V2MO
Phasenstatus In Orbit
Besitzer/Staat SPXS/US

Große Konstellationen

Loading constellations...